{"data":{"norad_id":26720,"intl_designator":"2001-011B","name":"BSAT-2A","alt_names":[],"object_type":"PAYLOAD","status":"ACTIVE","operator":null,"country":"JPN","launch_date":"2001-03-08","launch_site_code":"FRGUI","launch_vehicle":null,"mission":null,"orbit_class":"UNKNOWN","rcs_meters":15.8866,"size_class":null,"mass_kg":null,"dimensions":null,"purposes":[],"wikipedia_slug":null,"has_3d_model":false,"image_url":null,"decayed_at":null,"tle_current":{"epoch":"2026-09-19T21:38:16.969056Z","epoch_age_seconds":62902,"freshness":"FRESH","line1":"1 26720U 01011B   26262.90158529 -.00000009  00000+0  00000+0 0  9995","line2":"2 26720  10.9311  46.5903 0006657 186.6908 352.2508  0.99175488 92910","mean_motion":0.99175488,"eccentricity":0.0006657,"inclination_deg":10.9311,"raan_deg":46.5903,"arg_perigee_deg":186.6908,"mean_anomaly_deg":352.2508,"bstar":0,"rev_number":9291,"period_min":1451.9716807443,"perigee_km":36068.478874681,"apogee_km":36125.029945104,"semimajor_km":42474.891409892,"source":"CELESTRAK","updated_at":"2026-09-20T09:00:13.577113Z"}}}